This is the latest recevied weather packets stored in our database for station/object IW8XOI-10. If no packets are shown the sender has not sent any weather packets the latest 10 day(s).
| Time | Temp. | Humidity | Pressure | Rain* | Wind** | Luminosity | Snow |
|---|---|---|---|---|---|---|---|
| 1777276578 | 23.33° C | 49% | 1029.2 hPa | - | - | - | - |
| 1777272978 | 22.78° C | 49% | 1028.9 hPa | - | - | - | - |
| 1777269378 | 22.78° C | 49% | 1028.8 hPa | - | - | - | - |
| 1777265778 | 22.22° C | 50% | 1028.5 hPa | - | - | - | - |
| 1777262178 | 22.22° C | 50% | 1028 hPa | - | - | - | - |
| 1777258579 | 22.78° C | 50% | 1028.2 hPa | - | - | - | - |
| 1777254979 | 23.33° C | 49% | 1028.2 hPa | - | - | - | - |
| 1777251379 | 23.89° C | 49% | 1028.2 hPa | - | - | - | - |
| 1777247779 | 25° C | 48% | 1028.5 hPa | - | - | - | - |
| 1777244179 | 26.11° C | 47% | 1028.8 hPa | - | - | - | - |
| 1777240579 | 26.67° C | 47% | 1028.5 hPa | - | - | - | - |
| 1777236979 | 28.33° C | 46% | 1029.1 hPa | - | - | - | - |
| 1777233379 | 30° C | 43% | 1028.9 hPa | - | - | - | - |
| 1777229779 | 31.11° C | 43% | 1028.5 hPa | - | - | - | - |
| 1777226179 | 32.22° C | 43% | 1027.6 hPa | - | - | - | - |
| 1777222579 | 32.78° C | 43% | 1027.5 hPa | - | - | - | - |
| 1777218980 | 32.78° C | 43% | 1027.6 hPa | - | - | - | - |
| 1777215380 | 32.22° C | 44% | 1027.6 hPa | - | - | - | - |
| 1777211780 | 31.67° C | 44% | 1027.5 hPa | - | - | - | - |
| 1777208180 | 31.11° C | 45% | 1027.8 hPa | - | - | - | - |
| 1777206282 | 29.44° C | 45% | 1027.9 hPa | - | - | - | - |
| 1777204580 | 29.44° C | 45% | 1027.9 hPa | - | - | - | - |
| 1777200980 | 27.78° C | 46% | 1028 hPa | - | - | - | - |
| 1777197380 | 25.56° C | 48% | 1028.2 hPa | - | - | - | - |
| 1777193780 | 23.33° C | 48% | 1028 hPa | - | - | - | - |
* Rain since midnight (hover to see other rain measurements)
** Current wind speed in m/s (hover to see current wind gust speed)